Content
SEND FEEDBACK

Daily
Averages
Monthly
Summary
United States of America

NEW YORK - CENTRAL PARK, NEW YORK


Home > North America > United States > New York
Elevation: 4 meters     Latitude: 40 47N     Longitude: 073 58W

WEATHER
 
SELECT A DAY
Number of Records: 146,023;   Date Range: 11/1/95 - 4/23/14
 
SHARE

PRINT THIS DATA

[ ← Previous Day ]
WEATHER ALMANAC - 24 FEBRUARY, 2013
[ Next Day → ]
[ °F ]   °C
Weather ElementAverageHighLow
Temperature3.7 °C8.3 °C (1:51 pm)1.1 °C (10:51 pm)
Dewpoint-0.3 °C2.2 °C (9:51 am)-6.7 °C (9:51 pm)
Humidity77 %93 % (1:51 am)51 % (3:51 pm)
Barometer1009.5 hPa1014.6 hPa (10:51 pm)1007.1 hPa (1:51 pm)
Wind Speed10 km/h22.2 km/h (3:51 pm)
Wind Gust42.6 km/h (7:51 pm)
Weather ElementAverage
Visibility13.8 km
Wind DirectionE (92.1 °)

Weather ElementTotal
Precipitation0.76 mm
Heating Degree Days13.7 (Base 18.3)
Averaged from 38 records on 24 February, 2013
WEATHER CONDITIONS BREAKOUT
WIND DIRECTION BREAKOUT
WEATHER BY HOUR - 24 FEBRUARY, 2013
[ °F ]   °C
Local TimeTemperatureDewpointHumidityBarometerVisibilityWind DirectionWind SpeedGust SpeedPrecipitationEventsConditions
1:51 AM2.8 °C1.7 °C93 %1009.1 hPa4.8 kmVariable5.6 km/hOvercast
2:02 AM2.8 °C1.7 °C93 %1009.8 hPa4 kmCalmOvercast
2:14 AM2.8 °C1.7 °C93 %1009.5 hPa4.8 kmNorth (10°)11.1 km/hOvercast
2:51 AM2.8 °C1.7 °C93 %1008.5 hPa4.8 kmVariable9.3 km/hOvercast
3:23 AM2.8 °C1.7 °C93 %1009.1 hPa4 kmVariable7.4 km/hOvercast
3:30 AM2.8 °C1.7 °C93 %1009.5 hPa3.2 kmVariable5.6 km/h0.25 mmOvercast
3:41 AM2.8 °C1.7 °C93 %1009.5 hPa8 kmVariable5.6 km/h0.25 mmOvercast
3:51 AM2.8 °C1.7 °C93 %1008.8 hPa12.9 kmVariable7.4 km/h0.25 mmOvercast
4:00 AM2.8 °C1.7 °C93 %1009.5 hPa12.9 kmVariable9.3 km/hOvercast
4:49 AM3 °C2 °C93 %1008.8 hPa16.1 kmVariable7.4 km/hOvercast
4:51 AM2.8 °C1.7 °C93 %1007.8 hPa16.1 kmNE (50°)9.3 km/hOvercast
5:51 AM2.8 °C1.7 °C93 %1007.8 hPa16.1 kmNorthOvercast
6:06 AM2.8 °C1.7 °C93 %1008.5 hPa16.1 kmVariable9.3 km/hOvercast
6:41 AM2.8 °C1.1 °C89 %1008.8 hPa16.1 kmVariable9.3 km/hMostly Cloudy
6:51 AM2.8 °C1.1 °C89 %1008.1 hPa16.1 kmVariable9.3 km/hOvercast
7:13 AM2.8 °C1.1 °C89 %1008.8 hPa16.1 kmWNW (300°)7.4 km/hOvercast
7:41 AM2.8 °C1.1 °C89 %1008.8 hPa16.1 kmWNW (300°)7.4 km/hMostly Cloudy
7:51 AM2.8 °C1.1 °C89 %1008.1 hPa16.1 kmVariable9.3 km/hOvercast
8:14 AM3.3 °C1.7 °C89 %1008.8 hPa16.1 kmENE (60°)7.4 km/hMostly Cloudy
8:51 AM3.9 °C1.1 °C82 %1008.1 hPa16.1 kmWNW (300°)9.3 km/hOvercast
9:31 AM4.4 °C1.7 °C83 %1009.1 hPa16.1 kmVariable7.4 km/hOvercast
9:51 AM5 °C2.2 °C82 %1008.1 hPa16.1 kmVariable5.6 km/hOvercast
10:20 AM5.6 °C1.7 °C76 %1008.8 hPa16.1 kmVariable9.3 km/hOvercast
10:51 AM6.1 °C2.2 °C76 %1008.1 hPa16.1 kmNW (320°)16.7 km/hMostly Cloudy
11:51 AM7.2 °C1.7 °C68 %1008.1 hPa16.1 kmVariable5.6 km/hOvercast
12:33 PM7.2 °C0.6 °C63 %1008.1 hPa16.1 kmNW (320°)16.7 km/h25.9 km/hOvercast
12:51 PM7.8 °C0.6 °C61 %1007.5 hPa16.1 kmVariable5.6 km/hOvercast
1:51 PM8.3 °C-1.1 °C52 %1007.1 hPa16.1 kmVariable7.4 km/hOvercast
2:51 PM7.2 °C-2.2 °C52 %1007.5 hPa16.1 kmWNW (300°)13 km/h31.5 km/hOvercast
3:51 PM6.1 °C-3.3 °C51 %1008.1 hPa16.1 kmNW (310°)22.2 km/h40.7 km/hOvercast
4:51 PM5 °C-3.3 °C55 %1009.5 hPa16.1 kmVariable11.1 km/h37 km/hOvercast
5:51 PM3.3 °C-5 °C55 %1010.8 hPa16.1 kmNorthOvercast
6:51 PM2.8 °C-6.1 °C52 %1011.9 hPa16.1 kmNW (310°)16.7 km/h38.9 km/hOvercast
7:51 PM2.8 °C-6.1 °C52 %1012.9 hPa16.1 kmNW (310°)18.5 km/h42.6 km/hOvercast
8:51 PM1.7 °C-6.1 °C57 %1013.9 hPa16.1 kmVariable11.1 km/h33.3 km/hPartly Cloudy
9:51 PM1.7 °C-6.7 °C54 %1014.2 hPa16.1 kmNW (310°)18.5 km/h33.3 km/hClear
10:51 PM1.1 °C-6.7 °C56 %1014.6 hPa16.1 kmWNW (300°)16.7 km/h33.3 km/hClear
11:51 PM1.1 °C-6.7 °C56 %1014.6 hPa16.1 kmVariable11.1 km/hClear
Hourly data recorded from KNYC, located 0.53 kilometers away from New York - Central Park, New York







STORIES FROM OUR PARTNERS